User: anonymous   Login
Location: Unspecified
(0.0000°N, 0.0000°E)
Time: 09:32:52
(UTC+00:00)
Language:

Nadezhda 4 - Orbit

View from above orbital plane
View from above orbital plane
View from above satellite
View from above satellite

Ground track
Ground track

The orbit data is extracted from the following two-line orbital elements,

1 23179U 94041A   18267.68090368 +.00000048 +00000-0 +32538-4 0  9991
2 23179 082.9473 322.5455 0036475 067.0858 085.1145 13.76548480215392
Epoch (UTC): 24 September 2018 16:20:30
Eccentricity: 0.0036475
inclination: 82.9473°
perigee height: 949 km
apogee height: 1003 km
right ascension of ascending node: 322.5455°
argument of perigee: 67.0858°
revolutions per day: 13.76548480
mean anomaly at epoch: 85.1145°
orbit number at epoch: 21539

The dashed part of the orbit path shows where the satellite is in the earth's shadow,  

DLR